Regional Weather Roundup
Issued by NWS Goodland, KS

Home | Current Version | Previous Version | Text Only | Print | Product List | Glossary Off
Versions: 1 2 3 4 5 6 7 8 9 10 11 12 13 14 15 16 17 18 19 20 21 22 23 24 25 26 27 28 29 30 31 32 33 34 35 36 37 38 39 40 41 42 43 44 45 46 47 48 49 50

000
ASUS43 KGLD 071559
RWRGLD

GOODLAND FORECAST AREA HOURLY WEATHER ROUNDUP
NATIONAL WEATHER SERVICE GOODLAND KS
1000 AM MDT TUE JUL 07 2015

...OFFICIAL OBSERVATIONS...

CITY           SKY/WX    TMP DP  RH WIND       PRES   REMARKS
GOODLAND KS    SUNNY     68  46  45 SE10      30.23F
HILL CITY KS   SUNNY     71  49  45 E14       30.19F HAZE
IMPERIAL NEB   MOSUNNY   69  50  50 SE12      30.23F
MCCOOK NEB     MOSUNNY   68  54  60 MISG      30.22F HAZE
AKRON CO       PTSUNNY   64  50  60 S18G25    30.24F
BURLINGTON CO  MOSUNNY   66  46  48 E10       30.25F
LIMON CO       CLOUDY    59  51  75 S13       30.27S HAZE
$$

...UNOFFICIAL OBSERVATIONS...

CITY           SKY/WX    TMP DP  RH WIND       PRES   REMARKS
COLBY KS       SUNNY     68  52  56 E9        30.24F
GOVE KS          N/A     69  32  25 MISG        N/A
NORTON KS      SUNNY     70  46  43 NE9       30.20S
SHARON SPRINGS   N/A     66  50  56 SE9G18      N/A
KIT CARSON CO    N/A     66  49  55 MISG        N/A
$$



USA.gov is the U.S. government's official web portal to all federal, state and local government web resources and services.